Back to catalog

THOR ABLESTAR DEB

AliveLEO
NORAD 480·DEBRIS·🇺🇸 United States

Launched Jun 29, 1961 from Cape Canaveral Space Force Station

Loading…

Next Passes (next 24 hours)

TLE

FreshSource: Space-Track

Epoch: Sep 13, 2026, 22:09 UTC

1 00480U 61015FS  26256.92345270  .00000939  00000-0  30296-3 0  9992
2 00480  66.2367 179.9821 0067583  83.8730 277.0065 14.42512157367611

Track THOR ABLESTAR DEB in real time with AllMySat

Download on the App Store